This demonstration page uses our WeatherBlox Daily Observations layout. Learn more.

Left ArrowRight Arrow

Hourly Observations for August 19, 2015

Temp ( °F °C ) Dew Point ( °F °C ) Humidity (%) Winds ( mph kmh ) Pressure ( in mb ) Visibility ( mi km ) Precip ( " mm )
12:51 am 00:51 Clear 82 27.8 50 10 33 33 WNW 13 20 29.66 1004 10 16 0.00 0.00
1:51 am 01:51 Clear 82 27.8 51 10.6 34 34 WNW 12 19 29.67 1005 10 16 0.00 0.00
2:51 am 02:51 Clear 79 26.1 52 11.1 39 39 NW 10 17 29.69 1005 10 16 0.00 0.00
3:51 am 03:51 Clear 81 27.2 53 11.7 38 38 NW 16 26 29.76 1008 10 16 0.00 0.00
4:51 am 04:51 Clear 80 26.7 54 12.2 41 41 NW 15 24 29.70 1006 10 16 0.00 0.00
5:51 am 05:51 Sunny 79 26.1 71 21.7 77 77 NW 12 19 30.04 1017 10 16 0.00 0.00
6:51 am 06:51 Sunny 81 27.2 54 12.2 39 39 NW 16 26 29.74 1007 10 16 0.00 0.00
7:51 am 07:51 Sunny 85 29.4 53 11.7 33 33 NW 16 26 29.75 1008 10 16 0.00 0.00
8:51 am 08:51 Sunny 72 22.2 33 0.6 24 24 NW 17 28 28.91 979 10 16 0.00 0.00
9:51 am 09:51 Sunny 81 27.2 60 15.6 49 49 NW 18 30 29.82 1010 10 16 0.00 0.00
10:51 am 10:51 Sunny 94 34.4 50 10 22 22 NW 17 28 29.74 1007 10 16 0.00 0.00
11:51 am 11:51 Sunny 97 36.1 49 9.4 20 20 WNW 14 22 29.73 1007 10 16 0.00 0.00
12:51 pm 12:51 Sunny 99 37.2 49 9.4 18 18 W 17 28 29.70 1006 10 16 0.00 0.00
1:51 pm 13:51 Sunny 102 38.9 47 8.3 15 15 W 18 30 29.67 1005 10 16 0.00 0.00
2:51 pm 14:51 Sunny 103 39.4 47 8.3 15 15 W 16 26 29.65 1004 10 16 0.00 0.00
3:51 pm 15:51 Sunny 102 38.9 46 7.8 15 15 W 17 28 29.62 1003 10 16 0.00 0.00
4:51 pm 16:51 Sunny 101 38.3 45 7.2 15 15 WNW 20 31 29.62 1003 10 16 0.00 0.00
5:51 pm 17:51 Sunny 99 37.2 44 6.7 15 15 WNW 20 31 29.62 1003 10 16 0.00 0.00
6:51 pm 18:51 Sunny 94 34.4 44 6.7 18 18 WNW 15 24 29.97 1015 10 16 0.00 0.00
7:51 pm 19:51 Clear 91 32.8 46 7.8 21 21 NW 16 26 29.65 1004 10 16 0.00 0.00
8:51 pm 20:51 Clear 89 31.7 46 7.8 23 23 NW 16 26 29.86 1011 10 16 0.00 0.00
9:51 pm 21:51 Clear 77 25 67 19.3 71 71 WNW 13 20 29.92 1013 10 16 0.00 0.00
10:51 pm 22:51 Clear 83 28.3 48 8.9 30 30 WNW 9 15 29.70 1006 10 16 0.00 0.00
11:51 pm 23:51 Clear 82 27.8 48 8.9 31 31 WNW 12 19 29.70 1006 10 16 0.00 0.00

Powered by AerisWeather